When you browse on this site, cookies collect data to enhance your experience and personalize the content and advertising you see.
Visit our Privacy Policy to learn more. By continuing to use the site, you agree to this use of cookies and data.
  • In Hungary
  • List of Countries
  • For 7 days
  • Water Temperature
  • Satellite Maps
  • Weather Map
  • News
  • Weather Widgets
  • user-avatar
    Login

    Hourly Weather Middlesbrough

    Today, 23 February, Saturday

    Time Temperature Precipitation Wind Pressure Humidity
    00:00 +8°C° 0 mm 6 mps 772 mmHg 83%
    01:00 +8°C° 0 mm 6 mps 772 mmHg 81%
    02:00 +7°C° 0 mm 6 mps 772 mmHg 79%
    03:00 +7°C° 0 mm 6 mps 772 mmHg 77%
    04:00 +7°C° 0 mm 6 mps 772 mmHg 78%
    05:00 +7°C° 0 mm 6 mps 772 mmHg 78%
    06:00 +5°C° 0 mm 6 mps 772 mmHg 78%
    07:00 +7°C° 0 mm 6 mps 771 mmHg 78%
    08:00 +7°C° 0 mm 6 mps 771 mmHg 78%
    09:00 +8°C° 0 mm 7 mps 771 mmHg 78%
    10:00 +10°C° 0 mm 7 mps 771 mmHg 73%
    11:00 +11°C° 0 mm 7 mps 771 mmHg 68%
    12:00 +14°C° 0 mm 7 mps 771 mmHg 62%
    13:00 +14°C° 0 mm 7 mps 771 mmHg 62%
    14:00 +15°C° 0 mm 6 mps 771 mmHg 61%
    15:00 +15°C° 0 mm 6 mps 771 mmHg 61%
    16:00 +14°C° 0 mm 5 mps 771 mmHg 66%
    17:00 +13°C° 0 mm 5 mps 772 mmHg 71%
    18:00 +12°C° 0 mm 4 mps 772 mmHg 77%
    19:00 +11°C° 0 mm 3 mps 773 mmHg 79%
    20:00 +11°C° 0 mm 3 mps 773 mmHg 81%
    21:00 +10°C° 0 mm 2 mps 773 mmHg 83%
    22:00 +10°C° 0 mm 2 mps 774 mmHg 85%
    23:00 +11°C° 0 mm 1 mps 774 mmHg 86%

    Tomorrow, 24 February, Sunday

    Time Temperature Precipitation Wind Pressure Humidity
    00:00 +10°C° 0 mm 1 mps 774 mmHg 88%
    01:00 +10°C° 0 mm 1 mps 774 mmHg 89%
    02:00 +10°C° 0 mm 1 mps 774 mmHg 90%
    03:00 +9°C° 0 mm 1 mps 774 mmHg 91%
    04:00 +9°C° 0 mm 1 mps 774 mmHg 92%
    05:00 +8°C° 0 mm 2 mps 774 mmHg 92%
    06:00 +8°C° 0 mm 2 mps 774 mmHg 92%
    07:00 +8°C° 0 mm 2 mps 774 mmHg 92%
    08:00 +9°C° 0 mm 2 mps 775 mmHg 91%
    09:00 +10°C° 0 mm 3 mps 775 mmHg 90%
    10:00 +11°C° 0 mm 3 mps 775 mmHg 86%
    11:00 +12°C° 0 mm 3 mps 775 mmHg 81%
    12:00 +13°C° 0 mm 4 mps 775 mmHg 76%
    13:00 +14°C° 0 mm 4 mps 774 mmHg 72%
    14:00 +14°C° 0 mm 4 mps 774 mmHg 68%
    15:00 +14°C° 0 mm 4 mps 774 mmHg 64%
    16:00 +13°C° 0 mm 4 mps 774 mmHg 67%
    17:00 +12°C° 0 mm 4 mps 774 mmHg 70%
    18:00 +10°C° 0 mm 4 mps 774 mmHg 73%
    19:00 +10°C° 0 mm 4 mps 774 mmHg 72%
    20:00 +8°C° 0 mm 4 mps 774 mmHg 72%
    21:00 +8°C° 0 mm 4 mps 775 mmHg 72%
    22:00 +7°C° 0 mm 4 mps 775 mmHg 73%
    23:00 +7°C° 0 mm 4 mps 775 mmHg 73%

    Day after tomorrow, 25 February, Monday

    Time Temperature Precipitation Wind Pressure Humidity
    00:00 +7°C° 0 mm 4 mps 775 mmHg 74%
    01:00 +6°C° 0 mm 4 mps 775 mmHg 74%
    02:00 +7°C° 0 mm 3 mps 775 mmHg 74%
    03:00 +7°C° 0 mm 3 mps 775 mmHg 74%
    04:00 +7°C° 0 mm 3 mps 775 mmHg 73%
    05:00 +7°C° 0 mm 3 mps 775 mmHg 72%
    06:00 +7°C° 0 mm 3 mps 775 mmHg 71%
    07:00 +7°C° 0 mm 3 mps 775 mmHg 68%
    08:00 +8°C° 0 mm 3 mps 775 mmHg 65%
    09:00 +7°C° 0 mm 4 mps 775 mmHg 63%
    10:00 +10°C° 0 mm 4 mps 775 mmHg 58%
    11:00 +11°C° 0 mm 4 mps 775 mmHg 53%
    12:00 +13°C° 0 mm 4 mps 775 mmHg 49%
    13:00 +13°C° 0 mm 4 mps 775 mmHg 49%
    14:00 +14°C° 0 mm 4 mps 774 mmHg 49%
    15:00 +14°C° 0 mm 4 mps 774 mmHg 50%
    16:00 +13°C° 0 mm 4 mps 774 mmHg 55%
    17:00 +11°C° 0 mm 4 mps 774 mmHg 60%
    18:00 +10°C° 0 mm 4 mps 774 mmHg 65%
    19:00 +8°C° 0 mm 4 mps 774 mmHg 66%
    20:00 +8°C° 0 mm 4 mps 774 mmHg 68%
    21:00 +8°C° 0 mm 4 mps 774 mmHg 69%
    22:00 +7°C° 0 mm 4 mps 774 mmHg 70%
    23:00 +7°C° 0 mm 4 mps 774 mmHg 71%

    26 February, Tuesday

    Time Temperature Precipitation Wind Pressure Humidity
    00:00 +7°C° 0 mm 4 mps 774 mmHg 72%
    01:00 +7°C° 0 mm 4 mps 773 mmHg 73%
    02:00 +6°C° 0 mm 4 mps 773 mmHg 74%
    03:00 +6°C° 0 mm 4 mps 773 mmHg 75%
    04:00 +6°C° 0 mm 4 mps 773 mmHg 74%
    05:00 +7°C° 0 mm 3 mps 773 mmHg 74%
    06:00 +5°C° 0 mm 3 mps 773 mmHg 73%
    07:00 +7°C° 0 mm 3 mps 773 mmHg 71%
    08:00 +8°C° 0 mm 3 mps 773 mmHg 69%
    09:00 +9°C° 0 mm 2 mps 773 mmHg 67%
    10:00 +10°C° 0 mm 2 mps 773 mmHg 62%
    11:00 +13°C° 0 mm 1 mps 773 mmHg 58%
    12:00 +14°C° 0 mm 1 mps 773 mmHg 53%
    13:00 +15°C° 0 mm 1 mps 772 mmHg 53%
    14:00 +15°C° 0 mm 1 mps 772 mmHg 54%
    15:00 +16°C° 0 mm 2 mps 772 mmHg 54%
    16:00 +14°C° 0 mm 2 mps 772 mmHg 61%
    17:00 +13°C° 0 mm 2 mps 771 mmHg 68%
    18:00 +10°C° 0 mm 3 mps 771 mmHg 74%
    19:00 +10°C° 0 mm 3 mps 771 mmHg 78%
    20:00 +9°C° 0 mm 3 mps 771 mmHg 81%
    21:00 +9°C° 0 mm 3 mps 771 mmHg 85%
    22:00 +8°C° 0 mm 3 mps 770 mmHg 85%
    23:00 +8°C° 0 mm 3 mps 770 mmHg 86%

    27 February, Wednesday

    Time Temperature Precipitation Wind Pressure Humidity
    00:00 +8°C° 0 mm 3 mps 769 mmHg 86%
    01:00 +6°C° 0 mm 4 mps 769 mmHg 86%
    02:00 +6°C° 0 mm 4 mps 768 mmHg 87%
    03:00 +5°C° 0 mm 4 mps 768 mmHg 87%
    04:00 +5°C° 0 mm 4 mps 768 mmHg 88%
    05:00 +5°C° 0 mm 4 mps 767 mmHg 88%
    06:00 +5°C° 0 mm 4 mps 767 mmHg 89%
    07:00 +5°C° 0 mm 4 mps 767 mmHg 86%
    08:00 +7°C° 0 mm 3 mps 767 mmHg 84%
    09:00 +8°C° 0 mm 3 mps 767 mmHg 81%
    10:00 +10°C° 0 mm 3 mps 767 mmHg 76%
    11:00 +11°C° 0 mm 3 mps 767 mmHg 71%
    12:00 +13°C° 0 mm 3 mps 766 mmHg 66%
    13:00 +14°C° 0 mm 2 mps 766 mmHg 65%
    14:00 +15°C° 0 mm 2 mps 766 mmHg 63%
    15:00 +15°C° 0 mm 2 mps 766 mmHg 62%
    16:00 +14°C° 0 mm 2 mps 766 mmHg 68%
    17:00 +12°C° 0 mm 2 mps 766 mmHg 74%
    18:00 +10°C° 0 mm 2 mps 766 mmHg 80%
    19:00 +9°C° 0 mm 2 mps 766 mmHg 83%
    20:00 +9°C° 0 mm 2 mps 766 mmHg 86%
    21:00 +8°C° 0 mm 2 mps 766 mmHg 89%
    22:00 +8°C° 0 mm 2 mps 766 mmHg 90%
    23:00 +8°C° 0 mm 2 mps 766 mmHg 91%

    28 February, Thursday

    Time Temperature Precipitation Wind Pressure Humidity
    00:00 +7°C° 0 mm 2 mps 766 mmHg 91%
    01:00 +7°C° 0 mm 2 mps 766 mmHg 92%
    02:00 +7°C° 0 mm 2 mps 765 mmHg 92%
    03:00 +7°C° 0 mm 2 mps 765 mmHg 93%
    04:00 +6°C° 0 mm 2 mps 765 mmHg 92%
    05:00 +6°C° 0 mm 2 mps 765 mmHg 92%
    06:00 +6°C° 0 mm 2 mps 765 mmHg 92%
    07:00 +7°C° 0 mm 2 mps 766 mmHg 90%
    08:00 +8°C° 0 mm 2 mps 766 mmHg 88%
    09:00 +9°C° 0 mm 2 mps 766 mmHg 86%
    10:00 +10°C° 0 mm 3 mps 766 mmHg 81%
    11:00 +12°C° 0 mm 3 mps 766 mmHg 77%
    12:00 +13°C° 0 mm 4 mps 766 mmHg 73%
    13:00 +13°C° 0 mm 5 mps 766 mmHg 71%
    14:00 +13°C° 0 mm 5 mps 766 mmHg 70%
    15:00 +13°C° 0 mm 6 mps 766 mmHg 68%
    16:00 +12°C° 0 mm 5 mps 766 mmHg 73%
    17:00 +11°C° 0 mm 4 mps 766 mmHg 78%
    18:00 +9°C° 0 mm 3 mps 766 mmHg 82%
    19:00 +9°C° 0 mm 3 mps 766 mmHg 84%
    20:00 +8°C° 0 mm 3 mps 767 mmHg 86%
    21:00 +8°C° 0 mm 3 mps 767 mmHg 88%
    22:00 +7°C° 0 mm 3 mps 767 mmHg 88%
    23:00 +7°C° 0 mm 3 mps 767 mmHg 88%
    Show more